This is the latest recevied weather packets stored in our database for station/object K5YNC. If no packets are shown the sender has not sent any weather packets the latest 10 day(s).
| Time | Temp. | Humidity | Pressure | Rain* | Wind** | Luminosity | Snow |
|---|---|---|---|---|---|---|---|
| 1777520829 | 12.22° C | 91% | 1018.4 hPa | 0 mm | - | 0 W/m² | - |
| 1777520526 | 12.22° C | 91% | 1018.3 hPa | 0 mm | - | 0 W/m² | - |
| 1777520222 | 12.22° C | 91% | 1018.3 hPa | 0 mm | - | 0 W/m² | - |
| 1777519921 | 12.22° C | 91% | 1018.3 hPa | 0 mm | - | 0 W/m² | - |
| 1777519617 | 12.78° C | 90% | 1017.9 hPa | 0 mm | - | 0 W/m² | - |
| 1777519313 | 12.78° C | 90% | 1018 hPa | 0 mm | - | 0 W/m² | - |
| 1777519010 | 12.78° C | 90% | 1017.8 hPa | 0 mm | - | 0 W/m² | - |
| 1777518706 | 12.78° C | 90% | 1017.8 hPa | 0 mm | - | 0 W/m² | - |
| 1777518403 | 12.78° C | 90% | 1017.8 hPa | 0 mm | - | 0 W/m² | - |
| 1777518098 | 13.33° C | 90% | 1017.7 hPa | 0 mm | - | 0 W/m² | - |
| 1777517795 | 13.33° C | 90% | 1017.5 hPa | 0 mm | - | 0 W/m² | - |
| 1777517491 | 13.89° C | 89% | 1017.4 hPa | 0 mm | - | 0 W/m² | - |
| 1777517189 | 13.33° C | 89% | 1017.4 hPa | 0 mm | - | 0 W/m² | - |
| 1777516887 | 13.89° C | 88% | 1017.5 hPa | 0 mm | - | 0 W/m² | - |
| 1777516584 | 13.89° C | 88% | 1017.5 hPa | 0 mm | - | 0 W/m² | - |
| 1777516280 | 13.89° C | 87% | 1017.3 hPa | 0 mm | - | 0 W/m² | - |
| 1777515975 | 14.44° C | 87% | 1017.5 hPa | 0 mm | - | 0 W/m² | - |
| 1777515673 | 14.44° C | 87% | 1017.6 hPa | 0 mm | - | 0 W/m² | - |
| 1777515370 | 15° C | 86% | 1017.5 hPa | 0 mm | - | 0 W/m² | - |
| 1777515066 | 15° C | 86% | 1017.5 hPa | 0 mm | - | 0 W/m² | - |
| 1777514762 | 15° C | 85% | 1017.4 hPa | 0 mm | - | 0 W/m² | - |
| 1777514459 | 15° C | 84% | 1017.5 hPa | 0 mm | - | 0 W/m² | - |
| 1777514156 | 15° C | 84% | 1017.2 hPa | 0 mm | - | 0 W/m² | - |
| 1777513853 | 15° C | 83% | 1017.2 hPa | 0 mm | - | 0 W/m² | - |
| 1777513550 | 15° C | 81% | 1017.1 hPa | 0 mm | - | 0 W/m² | - |
* Rain latest hour (hover to see other rain measurements)
** Current wind speed in m/s (hover to see current wind gust speed)